Regional Weather Roundup
Issued by NWS Charleston, WV

Home | Current Version | Previous Version | Graphics & Text | Print | Product List | Glossary On
Versions: 1 2 3 4 5 6 7 8 9 10 11 12 13 14 15 16 17 18 19 20 21 22 23 24 25 26 27 28 29 30 31 32 33 34 35 36 37 38 39 40 41 42 43 44 45 46 47 48 49 50
000
ASUS41 KRLX 050310
RWRRLX
West Virginia Regional Weather Roundup
National Weather Service Charleston WV
1000 PM EST SUN DEC 04 2016

Note: "fair" indicates few or no clouds below 12,000 feet with no
significant weather and/or obstructions to visibility.

WVZ003-050400-
Northern Panhandle of West Virginia

CITY           SKY/WX    TMP DP  RH WIND       PRES   REMARKS
WHEELING       LGT RAIN  37  33  85 SE6       29.86F FOG
$$

WVZ009-050400-
Northwest West Virginia

CITY           SKY/WX    TMP DP  RH WIND       PRES   REMARKS
PARKERSBURG    LGT RAIN  40  38  93 CALM      29.90F FOG
$$

WVZ006-050400-
Western West Virginia

CITY           SKY/WX    TMP DP  RH WIND       PRES   REMARKS
HUNTINGTON     LGT RAIN  45  43  93 SW8       29.91R
$$

WVZ015-050400-
West Central West Virginia

CITY           SKY/WX    TMP DP  RH WIND       PRES   REMARKS
CHARLESTON     LGT RAIN  46  43  89 S5        29.90S
$$

WVZ022-031-050400-
North Central West Virginia

CITY           SKY/WX    TMP DP  RH WIND       PRES   REMARKS
CLARKSBURG     LGT RAIN  42  39  89 CALM      29.86F
MORGANTOWN     LGT RAIN  43  35  73 SE10      29.87F
$$

WVZ025-035-042-045-050400-
Southern West Virginia

CITY           SKY/WX    TMP DP  RH WIND       PRES   REMARKS
BECKLEY        LGT RAIN  37  36  96 SE9       29.94S FOG
LOGAN          NOT AVBL
BLUEFIELD      CLOUDY    42  37  82 S9G23     29.96R
LEWISBURG      DRIZZLE   33  33  99 N7        29.99S
$$

WVZ047-050400-
Northern Mountains of West Virginia

CITY           SKY/WX    TMP DP  RH WIND       PRES   REMARKS
ELKINS         LGT RAIN  40  34  79 S10       29.91F
$$

WVZ052-050400-
Eastern Panhandle of West Virginia

CITY           SKY/WX    TMP DP  RH WIND       PRES   REMARKS
MARTINSBURG    LGT RAIN  38  33  82 S5        30.06F
PETERSBURG     CLOUDY    39  36  88 S6        30.00F
$$




USA.gov is the U.S. government's official web portal to all federal, state and local government web resources and services.